Location: Newark
(43.4306°N, 0.3089°E)
Time: 03:49:19
(UTC+00:00)

Transit 2A Rocket - Pass Details

Date: 26 August 2019
Orbit: 592 x 911 km, 66.7° (Epoch: 20 September)

Event Time Altitude Azimuth Distance (km) Brightness Sun altitude
Rises 02:10:55 0° 335° (NNW) 3,029 8.5 -28.4°
Reaches altitude 10° 02:13:34 10° 347° (NNW) 2,063 7.7 -28.1°
Maximum altitude 02:17:35 29° 47° (NE) 1,160 6.5 -27.7°
Drops below altitude 10° 02:21:23 10° 108° (ESE) 1,947 7.3 -27.3°
Sets 02:23:49 0° 120° (ESE) 2,829 8.1 -27.0°
